Regional Weather Roundup
Issued by NWS

Home | Current Version | Previous Version | Graphics & Text | Print | Product List | Glossary On
Versions: 1 2 3 4 5 6 7 8 9 10 11 12 13 14 15 16 17 18 19 20 21 22 23 24 25 26 27 28 29 30 31 32 33 34 35 36 37 38 39 40 41 42 43 44 45 46 47 48 49 50
000
ASUS45 KBOU 070207
RWRCO

WEATHER ROUNDUP FOR COLORADO
NATIONAL WEATHER SERVICE DENVER/BOULDER CO
800 PM MDT WED MAY 06 2015

NOTE: "FAIR" INDICATES FEW OR NO CLOUDS BELOW 12000 FEET WITH NO
SIGNIFICANT WEATHER AND/OR OBSTRUCTIONS TO VISIBILITY.

COZ001>005-013-030-031-070300-
...NORTHWEST COLORADO...

CITY           SKY/WX    TMP DP  RH WIND       PRES   REMARKS
CRAIG          CLOUDY    48  41  76 S7        29.83R
HAYDEN         CLOUDY    46  41  81 W8G18     29.84R
MEEKER         CLOUDY    47  40  76 NE3       29.84R
MOUNT WERNER   NOT AVBL
STEAMBOAT SPGS CLOUDY    48  40  76 CALM      29.84R
WALDEN         CLOUDY    43  37  81 SW7       29.86S
$$

COZ006>008-011-070300-
...WEST CENTRAL VALLEYS...

CITY           SKY/WX    TMP DP  RH WIND       PRES   REMARKS
GRAND JUNCTION LGT RAIN  51  48  89 NE10      29.78F
MONTROSE       PTCLDY    56  41  57 N6        29.82R
EAGLE          CLOUDY    45  41  87 SE6       29.89R
RIFLE          MOCLDY    49  43  80 E8        29.83R
DELTA          PTCLDY    57  47  70 N6        29.79R
NUCLA          PTCLDY    55  43  62 NE5       29.83R
$$

COZ017>023-064>068-070300-
...SOUTHWEST COLORADO...

CITY           SKY/WX    TMP DP  RH WIND       PRES   REMARKS
DURANGO        TSTM      46  43  89 W12       29.95R FOG
CORTEZ         PTCLDY    56  41  57 S9        29.85R
PAGOSA SPRINGS MOCLDY    47  37  68 CALM      29.95S
TELLURIDE      MOCLDY    45  32  61 S10G17    29.98R
WOLF CREEK PAS NOT AVBL
$$

COZ009-010-012-014-032>034-037-058>063-070300-
...CENTRAL COLORADO...

CITY           SKY/WX    TMP DP  RH WIND       PRES   REMARKS
ASPEN          CLOUDY    46  40  79 N8        29.88R
BUENA VISTA    NOT AVBL
COPPER MTN     CLOUDY    34  27  75 S13G23    30.03R WCI  25
BERTHOUD PASS  CLOUDY    28  19  69 W24G32    30.02R WCI  14
COTTONWOOD PAS CLOUDY    43  32  65 W9G24     29.95R
GUNNISON       PTCLDY    46  36  66 SW6       29.92R
KREMMLING      MOCLDY    50  37  62 W9        29.86S
LEADVILLE      CLOUDY    39  30  70 NW7       29.94R
MONARCH PASS     N/A     32  30  93 MISG      30.13R
SALIDA         CLOUDY    54  35  48 SW12      29.92R
SUNLIGHT       CLOUDY    34  32  93 CALM      30.02R
WILKERSON PASS CLOUDY    34  30  86 W9G18     30.00S WCI  26
$$

COZ069>075-070300-
...SAN LUIS VALLEY/SANGRE DE CRISTO MOUNTAINS...

CITY           SKY/WX    TMP DP  RH WIND       PRES   REMARKS
ALAMOSA        MOCLDY    50  34  54 SW16      29.88R
LA VETA PASS   PTCLDY   N/A N/A N/A MISG      29.97S
SAGUACHE       PTCLDY    43  39  87 SW6       29.88R
$$

COZ035-036-038>040-070300-
...NORTHERN COLORADO FRONT RANGE...

CITY           SKY/WX    TMP DP  RH WIND       PRES   REMARKS
DENVER INTL AP CLOUDY    54  50  86 S6        29.74R THUNDER
DMNS CITY PARK   N/A     55  50  83 NE3       29.73S
AURORA         LGT RAIN  54  52  94 NE6       29.75R
FRONT RANGE AP CLOUDY    55  54  94 CALM      29.75R
ERIE MUNI ARPT TSTM      55  48  76 NE5       29.75R
BOULDER MUN AP CLOUDY    55  50  82 N9        29.75R
CENTENNIAL     LGT RAIN  54  49  83 CALM      29.73F
BROOMFIELD     NOT AVBL
FORT COLLINS   CLOUDY    52  46  82 N8        29.77R
LONGMONT       CLOUDY    56  51  85 N8        29.77R
$$

COZ041-046-047-076>085-087-088-070300-
...PIKES PEAK/PALMER DIVIDE AND SOUTHERN FOOTHILLS...

CITY           SKY/WX    TMP DP  RH WIND       PRES   REMARKS
COLO. SPRINGS  CLOUDY    52  47  83 N5        29.77R
A. F. ACADEMY  CLOUDY    48  48  99 N3        29.77R
ELLICOTT       CLOUDY   N/A N/A N/A SE6       29.75R
FALCON         CLOUDY    47  46  94 N3        29.80R
FORT CARSON    CLEAR     52  47  83 W3        29.74R
LIMON          CLOUDY    53  47  79 CALM      29.72F
MONUMENT HILL  NOT AVBL
TRINIDAD       PTCLDY    61  37  41 SW22G28   29.77R
$$

COZ042>045-048>051-090-091-070300-
...NORTHEAST COLORADO...

CITY           SKY/WX    TMP DP  RH WIND       PRES   REMARKS
GREELEY ARPT   CLOUDY    52  52 100 N12       29.76R
AKRON          CLOUDY    56  53  90 N6        29.70R
BURLINGTON     MOCLDY    62  52  69 SW12      29.70R
WRAY           PTCLDY    61  54  76 W10       29.66R
STERLING       CLOUDY    55  54  94 NW5       29.67R
HOLYOKE        NOT AVBL
FORT MORGAN    CLOUDY    54  50  86 NW8       29.72R
$$

COZ086-089-092>099-070300-
...SOUTHEAST COLORADO...

CITY           SKY/WX    TMP DP  RH WIND       PRES   REMARKS
PUEBLO         CLOUDY    56  49  77 N3        29.70R
LA JUNTA       CLOUDY    56  48  74 NE9       29.69R
LAMAR          LGT RAIN  56  50  80 N9        29.69R
SPRINGFIELD      N/A     59  48  67 N21G29    29.71R
$$



USA.gov is the U.S. government's official web portal to all federal, state and local government web resources and services.